User: anonymous   Login
Location: Unspecified
(0.0000°N, 0.0000°E)
Time: 06:38:32
(UTC+00:00)
Language:

Kosmos-2184 - Orbit

View from above orbital plane
View from above orbital plane
View from above satellite
View from above satellite

Ground track
Ground track

The orbit data is extracted from the following two-line orbital elements,

1 21937U 92020A   19081.97622491 +.00000018 +00000-0 +32098-5 0  9990
2 21937 082.9288 270.1620 0032226 303.9627 163.7301 13.73158602349568
Epoch (UTC): 22 March 2019 23:25:45
Eccentricity: 0.0032226
inclination: 82.9288°
perigee height: 964 km
apogee height: 1012 km
right ascension of ascending node: 270.1620°
argument of perigee: 303.9627°
revolutions per day: 13.73158602
mean anomaly at epoch: 163.7301°
orbit number at epoch: 34956

The dashed part of the orbit path shows where the satellite is in the earth's shadow,  

DLR